Reflectivity
-20 -20 -20 -20 -20 -20 -20 -20 -20 -20 -20 -20 -20 -20 -20 -20 -20 -20 -20 -20 -20 -20 -20 -20 -20 -20 -20 -20 -20 -20 -20 -20
-20 -20 -20 -20 -20 -20 -20 -20 -20 -20 -20 -20 -20 -20 -20 -20 -20 -20 -20 -20 -20 -20 -20 -20 -20 -20 -20 -20 -20 -20 -20 -20
-20 -20 -20 -20 -20 -20 -20 -20 -2 -19 -20 -20 -20 -20 -20 -20 -20 -20 -20 -20 -20 -20 -20 -20 -20 -20 -20 -20 -20 -20 -20 -20
-0 -9 -19 -19 -20 -20 -20 -20 -14 -9 -2 -1 -1 -20 -20 -20 -20 -20 -20 -20 -20 -20 -20 -20 -20 -20 -20 -20 -20 -19 -8 -16
-20 -12 2 -12 -20 -20 -20 -20 -3 -19 16 -4 -20 -20 -20 -20 -20 -20 -20 -20 -20 -20 -20 -20 -20 -20 -20 -20 -20 -5 -10 -20
-4 9 11 15 20 19 10 5 5 19 13 -10 -20 -20 -20 -20 -20 -20 -20 -20 -20 -20 -20 -20 -20 -20 -20 -20 -20 -20 -20 -16
-20 -9 6 11 23 16 29 29 16 27 8 5 22 5 -16 -17 -20 -19 -20 -20 -20 -20 -20 -20 -20 -20 -20 -20 -20 -20 -20 -20
-20 -20 -20 -5 -4 -20 -11 25 16 1 6 -1 -19 2 -14 -20 -20 -20 -20 -20 -20 -20 -20 -20 -20 -20 -20 -20 -20 -20 -20 -20
-20 -20 -18 -14 22 29 25 2 -3 -9 -2 -20 -20 -20 -20 -20 -20 -20 -20 -20 -20 -20 -20 -20 -20 -20 -20 -20 -20 -20 -20 -20
-20 -20 -18 4 6 26 17 2 22 21 -20 -20 -20 -20 -20 -20 -20 -20 -20 -20 -20 -20 -20 -20 -20 -20 -20 -20 -20 -20 -20 -20
-20 -20 -20 -20 4 10 18 21 25 9 -20 -20 -20 -20 -20 -20 -20 -20 -20 -20 -20 -20 -20 -20 -20 -20 -20 -20 -20 -20 -20 -20
-20 -20 -20 -20 -20 -3 21 29 31 -18 -20 -20 -20 -20 -20 -20 -20 -20 -20 -20 -20 -20 -20 -20 -20 -20 -20 -20 -20 -20 -20 -20
-20 -20 -18 -20 -20 23 32 -2 -19 -20 -20 -20 -20 -20 -20 -20 -20 -20 -20 -20 -20 -20 -20 -20 -20 -20 -20 -20 -20 -20 -20 -20
-20 -20 -20 -16 6 26 -12 28 -20 -20 -20 -20 -20 -20 -20 -20 -20 -20 -20 -20 -20 -20 -20 -20 -20 -20 -20 -20 -20 -7 -20 -15
-20 -6 0 12 18 21 28 -7 -20 -20 -20 -20 -20 -20 -20 -20 -20 -20 -20 -20 -20 -20 -20 -20 -20 -20 -20 -20 -20 -20 -20 -7
-11 -3 23 26 28 -15 -18 -20 -20 -20 -20 -20 -20 -20 -20 -20 -20 -20 -20 -20 -20 -20 -20 -20 -20 -20 -20 -20 -20 -10 -12 -20
-20 -20 -20 -20 -20 -20 -20 -20 -20 -20 -20 -20 -20 -20 -20 -20 -20 -20 -20 -20 -20 -20 -20 -20 -20 -20 10 9 3 2 -8 -20
-20 -20 -20 -20 -20 -20 -20 -20 -20 -20 -20 -20 -20 -20 -20 -20 -20 -20 -20 -20 -20 -20 -20 -20 -20 -20 4 8 10 -20 -20 -20
-20 -20 -20 -20 -20 -20 -20 -20 -20 -20 -20 -20 -20 -20 -20 -20 -20 -20 -20 -20 -20 -20 -20 -20 -20 -18 10 10 10 -15 -20 -20
Wind_Speed
5 6 6 6 6 6 7 6 7 6 4 5 5 5 4 4 4 4 6 4 5 4 3 3 3 3 3 3 4 3 3 5
5 5 6 7 5 6 5 7 3 2 3 4 3 3 2 3 4 5 5 5 5 5 3 3 3 3 4 4 2 7 4 3
6 6 5 3 6 5 5 6 5 3 2 3 3 2 1 2 3 6 7 7 7 5 4 5 5 3 4 4 3 5 3 1
6 4 5 5 6 5 4 4 5 4 4 2 3 3 2 2 2 2 4 6 7 6 5 5 5 3 3 4 3 5 4 3
7 7 5 6 5 3 4 4 5 4 4 4 4 2 2 1 2 3 5 5 6 5 5 5 5 4 4 4 4 3 2 3
7 7 6 5 5 5 3 2 5 6 3 4 4 3 1 2 2 4 3 4 4 4 4 5 5 4 4 5 4 4 1 3
7 6 5 5 6 6 6 4 4 4 2 3 4 2 2 3 3 3 3 3 3 3 4 3 4 4 5 5 5 5 4 3
9 9 9 7 4 3 5 6 5 5 3 2 2 4 3 3 3 3 4 4 3 5 4 5 3 3 4 4 5 5 4 3
10 11 8 5 7 6 6 6 5 3 2 3 3 3 2 3 3 3 4 3 4 2 2 1 3 5 5 5 3 4 4 3
11 10 8 9 8 8 6 5 2 2 3 2 4 4 4 4 4 3 3 4 3 3 5 6 6 5 5 6 4 5 5 4
12 9 9 6 7 6 7 6 5 5 6 5 4 4 3 4 4 6 6 5 5 6 3 4 5 5 6 6 5 5 5 4
11 9 6 6 5 6 6 6 7 7 6 6 4 4 4 4 4 5 5 4 5 5 3 3 5 4 3 4 5 6 5 5
9 7 6 6 6 6 7 9 7 7 6 6 4 4 4 5 5 5 6 5 5 4 4 4 5 6 3 7 7 6 7 8
7 6 5 5 6 7 4 7 7 7 7 5 5 6 5 5 6 5 5 6 7 6 5 5 6 5 5 6 6 6 8 8
5 3 5 6 2 5 9 7 8 7 7 6 6 6 6 6 6 6 5 5 6 6 6 6 6 5 7 7 4 9 11 8
9 8 6 2 9 7 6 8 7 7 6 6 8 6 6 6 6 6 6 6 7 7 7 6 7 8 7 4 5 7 8 5
7 6 5 7 6 7 7 8 9 6 8 10 7 6 6 7 8 7 7 8 7 8 8 8 10 6 12 10 9 6 7 6
6 6 6 6 7 7 8 10 8 7 8 9 9 8 9 10 9 8 8 8 7 7 9 10 10 9 13 10 10 6 7 6
11 10 9 9 7 8 8 9 8 7 7 9 9 9 11 10 8 10 9 7 8 7 6 8 8 7 10 9 10 6 6 6
Wind_Direction
147 120 112 104 89 86 86 79 87 88 76 71 62 61 56 50 37 37 30 11 3 8 360 355 347 342 334 338 329 317 281 293
148 141 129 116 104 105 95 100 90 100 68 89 77 76 49 38 23 13 2 347 342 344 342 343 345 347 320 313 294 344 324 311
162 157 166 171 142 116 107 99 82 56 65 81 96 116 106 77 1 350 343 340 331 319 335 344 339 333 331 326 342 336 269 331
165 163 158 147 145 149 135 114 98 69 61 81 68 60 36 11 344 323 320 322 311 313 317 337 325 328 311 303 294 335 326 319
180 175 172 177 162 139 122 127 109 98 80 78 83 116 51 347 322 303 305 303 306 319 322 320 310 309 306 297 311 313 314 320
181 189 188 195 153 140 113 136 108 72 76 84 83 62 270 280 271 298 307 303 309 323 322 318 317 313 302 293 317 330 283 313
188 198 182 196 180 179 165 163 87 87 113 76 77 65 340 355 339 336 327 308 319 320 346 331 327 330 337 336 327 326 310 289
189 192 201 205 192 194 162 165 174 182 122 113 60 30 12 350 334 322 318 314 318 331 358 12 338 306 319 327 323 314 308 306
199 202 202 182 191 198 201 190 183 100 24 8 358 323 263 243 238 242 247 228 246 248 40 25 13 12 353 337 314 306 306 305
201 209 195 191 190 203 199 184 136 196 251 271 246 243 243 254 284 284 275 291 317 6 33 14 6 2 351 338 338 341 341 326
209 206 200 195 201 170 169 173 188 212 233 243 253 285 321 320 313 309 314 316 328 320 360 356 344 352 357 348 345 321 312 310
207 207 199 198 147 169 174 182 203 213 226 240 265 304 311 302 286 288 279 289 278 260 280 308 305 291 322 311 286 285 309 305
201 196 178 181 203 167 205 208 194 218 227 229 253 274 292 285 275 274 288 289 289 269 273 262 254 260 287 282 271 283 299 299
177 154 191 202 202 213 188 231 229 228 226 235 253 259 267 272 271 276 293 306 299 289 269 277 276 288 268 266 270 282 287 293
98 122 228 235 155 225 224 228 228 230 231 239 254 259 260 261 265 278 273 271 272 269 258 262 273 274 276 277 303 290 291 295
199 233 291 244 237 240 226 238 234 223 241 246 249 248 252 256 257 253 251 251 257 257 253 260 277 277 275 294 278 275 271 278
317 308 287 272 244 236 232 244 247 205 235 244 246 239 242 243 243 243 243 250 252 266 262 272 273 270 281 283 284 272 269 267
352 323 303 288 266 248 244 243 251 233 238 248 246 242 240 238 233 229 237 239 242 250 259 269 272 271 276 275 286 269 271 263
355 351 338 322 310 311 319 325 311 297 277 267 260 246 246 247 234 235 230 222 232 240 238 258 262 269 257 280 284 277 274 266